{"data":{"norad_id":62499,"intl_designator":"2025-003N","name":"STARLINK-32714","alt_names":[],"object_type":"PAYLOAD","status":"ACTIVE","operator":null,"country":"US","launch_date":"2025-01-06","launch_site_code":"AFETR","launch_vehicle":null,"mission":null,"orbit_class":"UNKNOWN","rcs_meters":null,"size_class":null,"mass_kg":null,"dimensions":null,"purposes":["comms"],"wikipedia_slug":null,"has_3d_model":false,"image_url":null,"decayed_at":null,"tle_current":{"epoch":"2026-05-24T21:43:35.450688Z","epoch_age_seconds":79917,"freshness":"FRESH","line1":"1 62499U 25003N   26144.90527142  .00012745  00000+0  47177-3 0  9994","line2":"2 62499  42.9984 218.9006 0001730 275.5149  84.5506 15.27585046 78329","mean_motion":15.27585046,"eccentricity":0.000173,"inclination_deg":42.9984,"raan_deg":218.9006,"arg_perigee_deg":275.5149,"mean_anomaly_deg":84.5506,"bstar":0.00047177,"rev_number":7832,"period_min":94.266437326724,"perigee_km":481.84700396128,"apogee_km":484.22096912263,"semimajor_km":6861.170986542,"source":"CELESTRAK","updated_at":"2026-05-25T13:38:19.698686Z"}}}